TimeCDT,TemperatureF,Dew PointF,Humidity,Sea Level PressureIn,VisibilityMPH,Wind Direction,Wind SpeedMPH,Gust SpeedMPH,PrecipitationIn,Events,Conditions,WindDirDegrees,DateUTC
12:51 AM,61.0,53.1,75,29.98,10.0,Calm,Calm,-,N/A,,Clear,0,2013-05-08 05:51:00
1:51 AM,60.1,53.1,78,29.97,10.0,Calm,Calm,-,N/A,,Clear,0,2013-05-08 06:51:00
2:51 AM,60.1,52.0,75,29.97,10.0,West,3.5,-,N/A,,Clear,280,2013-05-08 07:51:00
3:51 AM,57.9,52.0,81,29.98,10.0,Calm,Calm,-,N/A,,Clear,0,2013-05-08 08:51:00
4:51 AM,57.9,52.0,81,29.98,10.0,Calm,Calm,-,N/A,,Clear,0,2013-05-08 09:51:00
5:51 AM,57.9,52.0,81,30.00,10.0,West,3.5,-,N/A,,Partly Cloudy,270,2013-05-08 10:51:00
6:51 AM,57.2,51.8,82,30.04,10.0,Calm,Calm,-,N/A,,Scattered Clouds,0,2013-05-08 11:51:00
7:51 AM,64.9,55.0,70,30.03,10.0,West,3.5,-,N/A,,Partly Cloudy,270,2013-05-08 12:51:00
8:51 AM,71.1,54.0,55,30.03,10.0,West,3.5,-,N/A,,Mostly Cloudy,270,2013-05-08 13:51:00
9:51 AM,75.0,55.0,50,30.03,10.0,Calm,Calm,-,N/A,,Mostly Cloudy,0,2013-05-08 14:51:00
10:51 AM,78.1,55.0,45,30.04,10.0,Calm,Calm,-,N/A,,Mostly Cloudy,0,2013-05-08 15:51:00
11:51 AM,79.0,48.0,34,30.02,10.0,Variable,3.5,-,N/A,,Mostly Cloudy,0,2013-05-08 16:51:00
12:51 PM,81.0,48.0,31,30.01,10.0,South,5.8,-,N/A,,Mostly Cloudy,170,2013-05-08 17:51:00
1:51 PM,82.0,48.9,31,30.00,10.0,Calm,Calm,-,N/A,,Mostly Cloudy,0,2013-05-08 18:51:00
2:51 PM,81.0,48.0,31,29.99,10.0,Variable,4.6,-,N/A,,Mostly Cloudy,0,2013-05-08 19:51:00
3:51 PM,81.0,46.9,30,29.97,10.0,South,4.6,-,N/A,,Mostly Cloudy,180,2013-05-08 20:51:00
4:51 PM,81.0,48.0,31,29.96,10.0,ESE,5.8,-,N/A,,Mostly Cloudy,120,2013-05-08 21:51:00
5:51 PM,77.0,50.0,39,29.96,10.0,SE,8.1,-,N/A,,Overcast,130,2013-05-08 22:51:00
6:36 PM,75.2,51.8,44,29.99,10.0,West,20.7,-,N/A,,Overcast,280,2013-05-08 23:36:00
6:51 PM,73.0,54.0,51,29.99,8.0,WNW,10.4,-,0.00,Rain,Light Rain,300,2013-05-08 23:51:00
7:51 PM,71.1,55.0,57,29.99,10.0,West,6.9,-,0.00,,Overcast,280,2013-05-09 00:51:00
8:51 PM,70.0,55.9,61,29.98,10.0,Calm,Calm,-,N/A,,Overcast,0,2013-05-09 01:51:00
9:51 PM,69.1,57.9,68,29.98,10.0,Calm,Calm,-,N/A,,Mostly Cloudy,0,2013-05-09 02:51:00
10:51 PM,64.9,55.9,73,29.97,10.0,ESE,5.8,-,N/A,,Mostly Cloudy,110,2013-05-09 03:51:00
11:51 PM,68.0,57.0,68,29.97,10.0,SE,3.5,-,N/A,,Mostly Cloudy,130,2013-05-09 04:51:00